{"data":{"norad_id":52838,"epoch":"2026-09-20T05:01:51.015936Z","epoch_age_seconds":91482,"freshness":"FRESH","line1":"1 52838U 22062J   26263.20961824  .00000284  00000+0  20918-4 0  9996","line2":"2 52838  53.1605 230.1837 0001378  87.0650 273.0509 15.31701940235295","mean_motion":15.3170194,"eccentricity":0.0001378,"inclination_deg":53.1605,"raan_deg":230.1837,"arg_perigee_deg":87.065,"mean_anomaly_deg":273.0509,"bstar":2.0918e-5,"rev_number":23529,"period_min":94.01306888728,"perigee_km":469.79043773966,"apogee_km":471.67798664574,"semimajor_km":6848.8712121927,"source":"CELESTRAK","updated_at":"2026-09-20T09:00:40.112138Z"}}